Clarksville, TN

12:22 PM CST on January 22, 2017 (GMT -0600)
Outlaw

Weather History for KCKV - December, 2014

Change the Weather History Date:

Thursday, December 11, 2014

  Actual Average Record
Temperature  
Mean Temperature 33 °F -  
Max Temperature 41 °F - 78 °F (1971)
Min Temperature 25 °F - 11 °F (1977)
Degree Days  
Heating Degree Days 32    
Month to date heating degree days 232  
Since 1 July heating degree days 1123  
Cooling Degree Days 0    
Month to date cooling degree days 0  
Moisture  
Dew Point 26 °F    
Average Humidity 72    
Maximum Humidity 85    
Minimum Humidity 59    
Precipitation  
Precipitation 0.00 in - 2.00 in (1949)
Month to date precipitation 2.28  
Sea Level Pressure  
Sea Level Pressure 30.30 in    
Wind  
Wind Speed 5 mph (NNW)    
Max Wind Speed 13 mph    
Max Gust Speed 16 mph    
Visibility 10 miles    
Events      
T = Trace of Precipitation, MM = Missing Value Source: NWS Daily Summary

Daily Weather History Graph

Daily Weather History Graph

Search for Another Location

Airport or City:

Trip Planner

Search our weather history database for the weather conditions in past years. The results will help you decide how hot, cold, wet, or windy it might be!

Date:

Astronomy

Dec. 11, 2014 Rise Set
Actual Time 6:51 AM CST 4:34 PM CST
Civil Twilight 6:22 AM CST 5:02 PM CST
Nautical Twilight 5:50 AM CST 5:35 PM CST
Astronomical Twilight 5:19 AM CST 6:06 PM CST
Moon 9:38 PM CST (12/11) 10:20 AM CST (12/11)
Length of Visible Light 10h 39m
Length of Day
9h 42m
Waning Gibbous, 75% of the Moon is Illuminated
Dec 11
Waning Gibbous
Dec 14
Last Quarter
Dec 21
New
Dec 28
First Quarter
Jan 4
Full

Hourly Weather History & Observations

Time (CST) Temp. Windchill Dew Point Humidity Pressure Visibility Wind Dir Wind Speed Gust Speed Precip Events Conditions
12:52 AM 33.1 °F 27.7 °F 28.0 °F 82% 30.26 in 10.0 mi NNW 5.8 mph - N/A   Overcast
1:52 AM 33.1 °F 28.7 °F 28.0 °F 82% 30.25 in 10.0 mi North 4.6 mph - N/A   Overcast
2:52 AM 34.0 °F 26.6 °F 26.1 °F 73% 30.24 in 10.0 mi NNE 9.2 mph - N/A   Overcast
3:52 AM 34.0 °F 26.6 °F 26.1 °F 73% 30.24 in 10.0 mi North 9.2 mph - N/A   Overcast
4:52 AM 34.0 °F 27.2 °F 26.1 °F 73% 30.24 in 10.0 mi NNW 8.1 mph - N/A   Overcast
5:52 AM 34.0 °F 26.6 °F 26.1 °F 73% 30.26 in 10.0 mi NNE 9.2 mph - N/A   Overcast
6:52 AM 34.0 °F 28.8 °F 26.1 °F 73% 30.28 in 10.0 mi North 5.8 mph - N/A   Overcast
7:52 AM 33.1 °F 26.1 °F 25.0 °F 72% 30.31 in 10.0 mi North 8.1 mph - N/A   Overcast
8:52 AM 34.0 °F 26.6 °F 26.1 °F 73% 30.33 in 10.0 mi North 9.2 mph - N/A   Overcast
9:52 AM 35.1 °F 28.6 °F 26.1 °F 70% 30.34 in 10.0 mi NNE 8.1 mph - N/A   Overcast
10:52 AM 35.1 °F 29.3 °F 26.1 °F 70% 30.34 in 10.0 mi NW 6.9 mph - N/A   Overcast
11:52 AM 36.0 °F 33.3 °F 25.0 °F 64% 30.32 in 10.0 mi Variable 3.5 mph - N/A   Mostly Cloudy
12:42 PM 37.0 °F 32.4 °F 25.0 °F 62% 30.29 in 10.0 mi North 5.8 mph - N/A   Partly Cloudy
12:52 PM 37.9 °F - 26.1 °F 62% 30.30 in 10.0 mi North - - N/A   Partly Cloudy
1:52 PM 39.0 °F 34.0 °F 26.1 °F 60% 30.28 in 10.0 mi WNW 6.9 mph - N/A   Clear
2:52 PM 39.9 °F - 26.1 °F 58% 30.28 in 10.0 mi Calm Calm - N/A   Clear
3:52 PM 39.9 °F 36.7 °F 26.1 °F 58% 30.29 in 10.0 mi North 4.6 mph - N/A   Clear
4:52 PM 37.9 °F - 26.1 °F 62% 30.29 in 10.0 mi Calm Calm - N/A   Clear
5:52 PM 36.0 °F 33.3 °F 26.1 °F 67% 30.30 in 10.0 mi NW 3.5 mph - N/A   Clear
6:52 PM 33.1 °F - 26.1 °F 75% 30.30 in 10.0 mi Calm Calm - N/A   Clear
7:52 PM 30.0 °F - 25.0 °F 82% 30.31 in 10.0 mi Calm Calm - N/A   Clear
8:52 PM 28.0 °F 24.2 °F 24.1 °F 85% 30.33 in 10.0 mi West 3.5 mph - N/A   Clear
9:52 PM 28.0 °F - 24.1 °F 85% 30.33 in 10.0 mi Calm Calm - N/A   Clear
10:52 PM 27.0 °F - 23.0 °F 85% 30.35 in 10.0 mi Calm Calm - N/A   Clear
11:52 PM 26.1 °F - 24.1 °F 92% 30.34 in 10.0 mi Calm Calm - N/A   Clear